STARLINK-1134 (45048 NORAD) Tracking and Keplerian Element Data

This shows tracking and keplerian element data for the satellite.

Feedback or suggestion? Click here.




ElementValue
Catalog45048
NameSTARLINK-1134
Epoch Orbit175
Epoch Day193.91667824
Epoch Year2020
RAAN204.7173
Inclination52.9994
Eccentricity0.0001238
Argument of Perigee108.1266
Mean Anonmoly221.5226
Mean Motion15.05540271
Decay Rate0.00044454
L11 45048U 20006E 20193.91667824 .00044454 00000-0 30542-2 0 9994
L22 45048 52.9994 204.7173 0001238 108.1266 221.5226 15.05540271 1756

Live tracking and technical data element details for STARLINK-1134 (NORAD 45048). STARLINK-1134 can be tracked NOW for your location showing map with azimuth and elevation plus other details from your city location.

Track the satellite on the map from your city or location and see movement details for azimuth, elevation, latitude, longitude, range, height, and movement on the map or in text.







IsCatalogInMostPopularTable: catalog: 45048, numindb: 29
Update: records affected: 1



GetName: 45048 STARLINK-1134

Hit Count: updated at: Mon, 13 Jul 2020 04:42:55 GMT